MDT,Max TemperatureF,Mean TemperatureF,Min TemperatureF,Max Dew PointF,MeanDew PointF,Min DewpointF,Max Humidity, Mean Humidity, Min Humidity, Max Sea Level PressureIn, Mean Sea Level PressureIn, Min Sea Level PressureIn, Max VisibilityMiles, Mean VisibilityMiles, Min VisibilityMiles, Max Wind SpeedMPH, Mean Wind SpeedMPH, Max Gust SpeedMPH,PrecipitationIn, CloudCover, Events, WindDirDegrees
2013-7-1,95,78,61,49,44,38,56,30,7,30.07,29.97,29.82,10,10,10,21,10,28,0.00,0,,114
2013-7-2,91,78,64,47,44,41,52,30,13,30.07,29.95,29.79,10,10,10,24,12,37,0.00,0,Rain,145
2013-7-3,96,80,64,52,44,23,63,32,8,29.98,29.87,29.65,10,10,9,26,13,34,0.00,0,,74
2013-7-4,93,78,62,47,42,36,50,27,8,29.95,29.80,29.70,10,10,7,20,5,41,0.00,0,,101
2013-7-5,97,84,70,50,45,37,43,28,7,29.83,29.76,29.64,10,10,7,22,8,29,0.00,2,Rain,85
2013-7-6,96,80,64,54,49,41,65,36,10,29.97,29.84,29.71,10,10,10,24,8,32,0.00,1,,58
2013-7-7,93,78,64,54,47,41,61,33,9,29.96,29.87,29.76,10,10,10,13,6,18,0.00,0,,143
2013-7-8,98,82,66,50,44,35,52,26,7,30.02,29.95,29.88,10,10,10,20,9,29,0.00,0,,218
2013-7-9,99,82,66,53,44,30,55,28,6,30.07,29.97,29.88,10,10,9,15,8,26,0.00,0,,114
2013-7-10,100,83,66,52,46,35,45,28,7,30.09,29.94,29.83,10,9,2,29,9,38,0.00,0,,110
2013-7-11,93,78,64,61,52,46,84,43,15,30.22,29.95,29.78,10,10,4,21,8,25,0.03,3,Rain,100
2013-7-12,91,77,63,59,54,44,78,48,13,29.98,29.91,29.85,10,10,10,14,6,20,0.01,2,Rain,47
2013-7-13,91,76,62,60,53,45,87,48,12,30.04,29.97,29.91,10,10,10,31,7,24,0.01,1,,121
2013-7-14,97,82,68,59,53,45,73,44,12,30.16,29.94,29.82,10,10,10,36,8,29,0.02,4,Rain-Thunderstorm,80
2013-7-15,89,76,63,63,58,50,87,67,19,30.09,29.97,29.86,10,10,2,18,8,28,0.12,5,Rain-Thunderstorm,86
2013-7-16,84,74,64,58,51,46,78,48,20,30.09,30.02,29.94,10,10,10,20,8,26,0.00,5,,97
2013-7-17,88,76,64,56,47,40,75,38,11,30.16,30.08,29.98,10,10,10,20,11,20,0.00,3,Rain,124
2013-7-18,90,78,66,51,48,44,56,34,15,30.10,30.01,29.88,10,10,10,12,8,,0.00,1,,113
2013-7-19,93,80,66,57,51,45,65,39,13,30.09,29.94,29.80,10,10,10,21,9,28,0.00,2,,78
2013-7-20,93,78,64,56,50,42,66,40,10,30.00,29.89,29.76,10,10,10,20,5,17,0.00,1,,111
2013-7-21,93,78,63,54,48,40,59,35,10,30.04,29.87,29.79,10,10,10,28,7,39,0.00,0,,106
2013-7-22,96,78,61,52,46,36,58,32,9,30.03,29.89,29.82,10,10,10,21,7,28,0.00,0,,44
2013-7-23,96,82,68,50,46,42,44,29,12,30.07,29.91,29.82,10,10,10,24,6,37,0.00,0,,168
2013-7-24,95,80,66,52,46,40,53,30,9,30.02,29.93,29.82,10,10,8,29,6,41,0.00,1,,98
2013-7-25,93,77,63,55,49,41,72,39,10,30.06,29.97,29.87,10,10,10,15,9,17,0.00,0,,167
2013-7-26,95,82,68,55,49,37,55,35,7,30.11,30.01,29.90,10,10,8,25,9,41,0.00,1,,108
2013-7-27,91,78,64,52,50,44,63,39,13,30.11,29.98,29.83,10,10,10,17,9,24,0.02,1,,181
2013-7-28,87,76,64,60,56,46,81,57,18,29.93,29.88,29.81,10,10,10,16,6,25,0.08,4,Rain,70
2013-7-29,89,73,57,57,48,39,81,44,13,30.16,29.99,29.91,10,10,10,23,7,38,0.00,1,,291
2013-7-30,91,74,57,48,39,30,60,28,6,30.18,30.10,30.04,10,10,10,15,6,23,0.00,0,,343
2013-7-31,96,76,57,43,37,31,47,23,5,30.17,30.06,29.96,10,10,10,10,6,,0.00,0,,150